Location: Unspecified
(0.0000°N, 0.0000°E)
Time: 08:14:09
(UTC+00:00)

N. Korean satellite - Pass Details

Date: 14 February 2018
Orbit: 459 x 514 km, 97.2° (Epoch: 23 February)

Event Time Altitude Azimuth Distance (km) Brightness Sun altitude
Rises 18:30:49 0° 178° (S) 2,518 10.3 -4.1°
Reaches altitude 10° 18:32:56 10° 184° (S) 1,630 9.5 -4.6°
Maximum altitude 18:36:18 48° 259° (W) 617 7.7 -5.4°
Drops below altitude 10° 18:39:38 10° 334° (NNW) 1,602 9.4 -6.2°
Sets 18:41:42 0° 340° (NNW) 2,469 10.2 -6.7°
